Regional Weather Roundup
Issued by NWS

Home | Current Version | Previous Version | Graphics & Text | Print | Product List | Glossary On
Versions: 1 2 3 4 5 6 7 8 9 10 11 12 13 14 15 16 17 18 19 20 21 22 23 24 25 26 27 28 29 30 31 32 33 34 35 36 37 38 39 40 41 42 43 44 45 46 47 48 49 50
000
ASUS45 KCYS 261210
RWRWY

WYOMING REGIONAL WEATHER ROUNDUP
NATIONAL WEATHER SERVICE CHEYENNE WY
500 AM MST THU FEB 26 2015

NOTE:  "FAIR" INDICATES FEW OR NO CLOUDS BELOW 12,000 FEET
WITH NO SIGNIFICANT WEATHER AND/OR OBSTRUCTIONS TO VISIBILITY.

WYZ001-261300-
YELLOWSTONE NATIONAL PARK

CITY           SKY/WX    TMP DP  RH WIND       PRES   REMARKS
LK YELLOWSTONE   N/A     -7 -11  83 NW3       29.99F
6HR MIN TEMP:  -8; 6HR MAX TEMP:   5;

W YELLOWSTONE  NOT AVBL

$$
WYZ002>013-054>058-071-098>099-261300-
NORTHERN WYOMING

CITY           SKY/WX    TMP DP  RH WIND       PRES   REMARKS
JACKSON        FAIR       7   1  78 CALM      30.02S
CODY           CLOUDY     9   7  92 N10       30.17S WCI  -6
GREYBULL       CLOUDY    15   3  59 NW16      30.23S WCI  -1
6HR MIN TEMP:  15; 6HR MAX TEMP:  17;

WORLAND        LGT SNOW  15  10  80 N8        30.22R WCI   4
6HR MIN TEMP:  15; 6HR MAX TEMP:  20; 6HR PCP: TRACE;

SHERIDAN       LGT SNOW   9   5  84 N8        30.31R FOG     WCI  -3
6HR MIN TEMP:   7; 6HR MAX TEMP:  12; 6HR PCP:  0.04;

BUFFALO        LGT SNOW   6   2  83 NE6       30.21S FOG     WCI  -4
6HR MIN TEMP:   6; 6HR MAX TEMP:   8; 6HR PCP:  0.04;

GILLETTE       CLOUDY     3  -1  83 NE5       30.27R FOG     WCI  -6
6HR MIN TEMP:   2; 6HR MAX TEMP:   8; 6HR PCP: TRACE;

HULETT         CLOUDY     3   0  85 N3        30.30R
NEWCASTLE      FAIR       3  -6  66 N7        30.28S WCI  -9

$$
WYZ014>020-022>026-101>103-261300-
CENTRAL WYOMING

CITY           SKY/WX    TMP DP  RH WIND       PRES   REMARKS
BIG PINEY      CLOUDY    17  12  80 SE8       30.01F WCI   7
6HR MIN TEMP:  17; 6HR MAX TEMP:  20;

PINEDALE       LGT SNOW  12  10  92 CALM      30.01F
DUBOIS         LGT SNOW   9   5  85 W6        29.99S WCI  -1
LANDER         CLOUDY    14  12  92 N8        30.08S WCI   3
6HR MIN TEMP:  14; 6HR MAX TEMP:  20; 6HR PCP: TRACE;

RIVERTON       CLOUDY    13   8  81 NE6       30.10F WCI   4
6HR MIN TEMP:  12; 6HR MAX TEMP:  19; 6HR PCP: TRACE;

CASPER         CLOUDY    10   3  73 NE7       30.15F WCI  -1
6HR MIN TEMP:  10; 6HR MAX TEMP:  11; 6HR PCP: TRACE;

DOUGLAS        CLOUDY     9   3  77 N6        30.21R WCI  -1
6HR MIN TEMP:   9; 6HR MAX TEMP:  11; 6HR PCP: TRACE;


$$
WYZ021-027>030-104>119-261300-
SOUTHERN WYOMING

CITY           SKY/WX    TMP DP  RH WIND       PRES   REMARKS
EVANSTON       FAIR      22  14  71 SE6       29.95F WCI  14
6HR MIN TEMP:  20; 6HR MAX TEMP:  27;

FORT BRIDGER   FAIR      17  17  98 N5        30.00F WCI  10
ROCK SPRINGS   FAIR      10   5  80 E5        30.00F WCI   2
6HR MIN TEMP:   9; 6HR MAX TEMP:  17; 6HR PCP: TRACE;

DIXON          FAIR      13   8  82 E6        30.05F WCI   4
RAWLINS        CLOUDY    13   9  84 E5        30.03S WCI   5
6HR MIN TEMP:  11; 6HR MAX TEMP:  16; 6HR PCP: TRACE;

SARATOGA       FLURRIES   5   3  92 S6        30.02F WCI  -6
LARAMIE        CLOUDY     6   3  87 CALM      30.00S
6HR MIN TEMP:   3; 6HR MAX TEMP:  10;

CHEYENNE       CLOUDY     8   2  76 N8        30.09F WCI  -4
6HR MIN TEMP:   8; 6HR MAX TEMP:  13; 6HR PCP: TRACE;

TORRINGTON     CLOUDY    11   3  70 N8        30.25R WCI  -1
6HR MIN TEMP:  10; 6HR MAX TEMP:  13;

PINE BLUFFS    CLOUDY    10   3  72 N8        30.19R WCI  -1

$$



USA.gov is the U.S. government's official web portal to all federal, state and local government web resources and services.